| time (UTC) | temp F | wind direction | speed knots | gust knots | rain 1hr in | rain 24hr in | rain mn in | humidity % | barometer mb |
| 20260506080108 | 62 | 234 | 5.2 | 10.4 | 0.00 | 0.20 | 0.04 | 78 | 1005.4 |
| 20260506073049 | 60 | 229 | 1.7 | 7.8 | 0.00 | 0.20 | 0.04 | 83 | 1005.2 |
| 20260506071602 | 59 | 217 | 2.6 | 7.0 | 0.00 | 0.20 | 0.04 | 86 | 1005.3 |
| 20260506061535 | 56 | 192 | 0.0 | 5.2 | 0.00 | 0.20 | 0.04 | 96 | 1005.1 |
| 20260506044502 | 53 | 200 | 0.0 | 3.5 | 0.00 | 0.20 | 0.04 | 96 | 1005.1 |
| 20260506043057 | 53 | 227 | 0.0 | 2.6 | 0.00 | 0.20 | 0.04 | 96 | 1004.8 |
| 20260506041547 | 53 | 219 | 0.9 | 3.5 | 0.00 | 0.20 | 0.04 | 96 | 1004.9 |
| 20260506040054 | 53 | 227 | 0.9 | 8.7 | 0.00 | 0.20 | 0.04 | 96 | 1004.8 |
| 20260506034616 | 53 | 218 | 1.7 | 4.3 | 0.00 | 0.20 | 0.04 | 96 | 1004.6 |
| 20260506033001 | 53 | 209 | 0.9 | 5.2 | 0.00 | 0.20 | 0.04 | 95 | 1004.6 |
| 20260506031519 | 53 | 232 | 0.9 | 5.2 | 0.00 | 0.20 | 0.04 | 95 | 1004.4 |
| 20260506030032 | 54 | 196 | 0.0 | 4.3 | 0.00 | 0.20 | 0.04 | 95 | 1004.5 |
| 20260506024616 | 54 | 233 | 1.7 | 5.2 | 0.00 | 0.20 | 0.04 | 95 | 1004.5 |
| 20260506023101 | 54 | 219 | 3.5 | 9.6 | 0.00 | 0.20 | 0.04 | 95 | 1004.7 |
| 20260506021538 | 55 | 209 | 1.7 | 5.2 | 0.00 | 0.20 | 0.04 | 95 | 1004.8 |
| 20260506020028 | 55 | 244 | 1.7 | 6.1 | 0.00 | 0.20 | 0.04 | 95 | 1004.6 |
| 20260506014520 | 55 | 219 | 0.9 | 6.1 | 0.00 | 0.20 | 0.04 | 95 | 1004.5 |
| 20260506013007 | 56 | 207 | 1.7 | 6.1 | 0.00 | 0.20 | 0.04 | 95 | 1004.4 |
| 20260506011526 | 56 | 248 | 0.9 | 4.3 | 0.00 | 0.20 | 0.04 | 95 | 1004.2 |
| 20260506010040 | 56 | 237 | 0.9 | 3.5 | 0.00 | 0.20 | 0.04 | 95 | 1004.2 |
| 20260506004533 | 56 | 241 | 0.9 | 4.3 | 0.00 | 0.20 | 0.04 | 95 | 1004.3 |
| 20260506003010 | 56 | 244 | 0.0 | 3.5 | 0.00 | 0.20 | 0.04 | 95 | 1004.3 |
| 20260506001517 | 56 | 245 | 2.6 | 4.3 | 0.00 | 0.20 | 0.04 | 95 | 1004.4 |
| 20260506000014 | 57 | 254 | 0.0 | 3.5 | 0.00 | 0.20 | 0.04 | 95 | 1004.1 |
| 20260505234515 | 57 | 235 | 0.9 | 4.3 | 0.00 | 0.23 | 0.04 | 95 | 1004.3 |
| 20260505233102 | 57 | 263 | 0.9 | 5.2 | 0.01 | 0.23 | 0.04 | 94 | 1004.4 |
| 20260505231506 | 57 | 244 | 0.9 | 3.5 | 0.02 | 0.23 | 0.04 | 94 | 1004.6 |
| 20260505230055 | 57 | 215 | 0.9 | 2.6 | 0.04 | 0.23 | 0.04 | 94 | 1004.8 |
| 20260505224552 | 57 | 215 | 0.0 | 2.6 | 0.06 | 0.28 | 0.04 | 93 | 1004.7 |
| 20260505223054 | 57 | 284 | 0.0 | 2.6 | 0.07 | 0.27 | 0.03 | 93 | 1004.7 |
| 20260505221528 | 57 | 279 | 0.0 | 2.6 | 0.07 | 0.25 | 0.02 | 92 | 1004.6 |
| 20260505220054 | 57 | 285 | 2.6 | 9.6 | 0.08 | 0.24 | 0.00 | 91 | 1004.6 |
| 20260505214518 | 58 | 292 | 3.5 | 13.0 | 0.09 | 0.21 | 0.21 | 91 | 1004.8 |
| 20260505213106 | 59 | 267 | 3.5 | 12.2 | 0.11 | 0.20 | 0.20 | 90 | 1005.0 |
| 20260505211510 | 59 | 300 | 5.2 | 13.0 | 0.11 | 0.18 | 0.18 | 89 | 1004.7 |
| 20260505210024 | 60 | 304 | 3.5 | 10.4 | 0.09 | 0.16 | 0.16 | 85 | 1004.4 |
| 20260505204517 | 62 | 238 | 3.5 | 7.8 | 0.06 | 0.13 | 0.13 | 80 | 1004.1 |
| 20260505203004 | 64 | 227 | 1.7 | 7.8 | 0.02 | 0.09 | 0.09 | 73 | 1003.4 |
| 20260505201518 | 65 | 242 | 0.9 | 4.3 | 0.00 | 0.07 | 0.07 | 65 | 1002.8 |
| 20260505200035 | 65 | 200 | 0.9 | 8.7 | 0.00 | 0.07 | 0.07 | 65 | 1002.7 |
| 20260505194537 | 65 | 259 | 1.7 | 3.5 | 0.00 | 0.07 | 0.07 | 65 | 1002.2 |
| 20260505193036 | 65 | 22 | 0.9 | 5.2 | 0.00 | 0.07 | 0.07 | 64 | 1001.8 |
| 20260505191610 | 66 | 77 | 2.6 | 7.0 | 0.00 | 0.07 | 0.07 | 63 | 1001.8 |
| 20260505190014 | 66 | 19 | 2.6 | 7.0 | 0.00 | 0.07 | 0.07 | 62 | 1002.0 |
| 20260505184506 | 66 | 107 | 3.5 | 8.7 | 0.00 | 0.07 | 0.07 | 60 | 1002.0 |
| 20260505183038 | 67 | 350 | 2.6 | 9.6 | 0.00 | 0.07 | 0.07 | 60 | 1001.9 |
| 20260505181505 | 68 | 74 | 2.6 | 8.7 | 0.00 | 0.07 | 0.07 | 56 | 1001.9 |
| 20260505180042 | 68 | 67 | 1.7 | 10.4 | 0.00 | 0.07 | 0.07 | 55 | 1002.0 |
| 20260505174534 | 68 | 92 | 6.1 | 11.3 | 0.00 | 0.07 | 0.07 | 55 | 1002.3 |
| 20260505173051 | 68 | 128 | 6.1 | 15.6 | 0.00 | 0.07 | 0.07 | 57 | 1002.4 |
| 20260505171602 | 69 | 119 | 3.5 | 13.0 | 0.00 | 0.07 | 0.07 | 57 | 1002.6 |
| 20260505170006 | 70 | 127 | 4.3 | 14.8 | 0.00 | 0.07 | 0.07 | 54 | 1002.7 |
| 20260505164544 | 71 | 115 | 5.2 | 20.0 | 0.00 | 0.07 | 0.07 | 51 | 1002.8 |
| 20260505163053 | 73 | 132 | 5.2 | 15.6 | 0.00 | 0.07 | 0.07 | 48 | 1002.8 |
| 20260505161535 | 76 | 120 | 1.7 | 6.1 | 0.00 | 0.07 | 0.07 | 44 | 1002.5 |
| 20260505160108 | 76 | 117 | 2.6 | 7.8 | 0.00 | 0.07 | 0.07 | 43 | 1002.4 |
| 20260505153116 | 77 | 99 | 3.5 | 7.0 | 0.00 | 0.07 | 0.07 | 40 | 1002.6 |
| 20260505151604 | 76 | 5 | 0.9 | 7.0 | 0.00 | 0.07 | 0.07 | 42 | 1002.9 |
| 20260505150109 | 75 | 38 | 0.0 | 5.2 | 0.00 | 0.07 | 0.07 | 42 | 1002.9 |
| 20260505124511 | 75 | 19 | 2.6 | 10.4 | 0.00 | 0.07 | 0.07 | 45 | 1004.2 |
| 20260505123003 | 75 | 36 | 2.6 | 7.8 | 0.00 | 0.07 | 0.07 | 45 | 1004.3 |
| 20260505121600 | 75 | 78 | 0.9 | 7.0 | 0.00 | 0.07 | 0.07 | 45 | 1004.6 |
| 20260505120024 | 74 | 51 | 0.9 | 7.0 | 0.00 | 0.07 | 0.07 | 44 | 1004.8 |
| 20260505114602 | 74 | 320 | 2.6 | 9.6 | 0.00 | 0.07 | 0.07 | 45 | 1004.9 |
| 20260505113034 | 74 | 315 | 0.9 | 7.0 | 0.00 | 0.07 | 0.07 | 46 | 1005.0 |
| 20260505111552 | 73 | 282 | 1.7 | 7.0 | 0.00 | 0.07 | 0.07 | 47 | 1005.1 |
| 20260505101517 | 72 | 360 | 0.9 | 7.0 | 0.00 | 0.07 | 0.07 | 48 | 1005.6 |
| 20260505100009 | 72 | 291 | 2.6 | 7.0 | 0.00 | 0.07 | 0.07 | 51 | 1005.7 |
| 20260505094607 | 71 | 149 | 0.9 | 7.8 | 0.00 | 0.07 | 0.07 | 54 | 1005.7 |
| 20260505093023 | 71 | 308 | 1.7 | 7.0 | 0.00 | 0.07 | 0.07 | 54 | 1005.9 |
| 20260505091550 | 70 | 304 | 2.6 | 7.0 | 0.00 | 0.07 | 0.07 | 55 | 1006.0 |
| 20260505090105 | 69 | 313 | 4.3 | 7.8 | 0.00 | 0.07 | 0.07 | 55 | 1006.2 |
| 20260505084535 | 69 | 305 | 1.7 | 7.8 | 0.00 | 0.07 | 0.07 | 58 | 1006.3 |
| 20260505083047 | 68 | 342 | 1.7 | 5.2 | 0.00 | 0.07 | 0.07 | 60 | 1006.4 |
| 20260505081601 | 69 | 360 | 2.6 | 7.8 | 0.00 | 0.07 | 0.07 | 60 | 1006.3 |